2023-001AE (55037 NORAD) Tracking and Keplerian Element Data

This shows tracking and keplerian element data for the satellite.

Feedback or suggestion? Click here.




ElementValue
Catalog55037
Name2023-001AE
Epoch Orbit171
Epoch Day13.91122468
Epoch Year2023
RAAN75.8751
Inclination97.5057
Eccentricity0.0016198
Argument of Perigee175.0957
Mean Anonmoly185.0436
Mean Motion15.13631711
Decay Rate0.00019394
L11 55037U 23001AE 23013.91122468 .00019394 00000+0 10776-2 0 9996
L22 55037 97.5057 75.8751 0016198 175.0957 185.0436 15.13631711 1712



Live tracking and technical data element details for 2023-001AE (NORAD 55037). 2023-001AE can be tracked NOW for your location showing map with azimuth and elevation plus other details from your city location.







IsCatalogInMostPopularTable: catalog: 55037, numindb: 3
Update: records affected: 1



GetName: 55037 2023-001AE

Hit Count: updated at: Tue, 07 Feb 2023 15:22:18 GMT